Weather History for KGIF - May, 2014

Change the Weather History Date:

Thursday, May 15, 2014

  Actual Average Record
Temperature  
Mean Temperature 81 °F -  
Max Temperature 90 °F - - ()
Min Temperature 73 °F - - ()
Cooling Degree Days 16    
Growing Degree Days 31 (Base 50)    
Moisture  
Dew Point 71 °F    
Average Humidity 82    
Maximum Humidity 97    
Minimum Humidity 55    
Precipitation  
Precipitation 0.27 in - - ()
Sea Level Pressure  
Sea Level Pressure 29.96 in    
Wind  
Wind Speed 8 mph (South)    
Max Wind Speed 15 mph    
Max Gust Speed 22 mph    
Visibility 9 miles    
Events Rain    
T = Trace of Precipitation, MM = Missing Value Source: NWS Daily Summary

Daily Weather History Graph

Daily Weather History Graph

Search for Another Location

Airport or City:

Trip Planner

Search our weather history database for the weather conditions in past years. The results will help you decide how hot, cold, wet, or windy it might be!

Date:

Astronomy

May. 15, 2014 Rise Set
Actual Time 6:37 AM EDT 8:09 PM EDT
Civil Twilight 6:11 AM EDT 8:35 PM EDT
Nautical Twilight 5:41 AM EDT 9:06 PM EDT
Astronomical Twilight 5:09 AM EDT 9:38 PM EDT
Moon 9:16 PM EDT (5/15) 7:21 AM EDT (5/15)
Length of Visible Light 14h 23m
Length of Day
13h 32m
Full, 99% of the Moon is Illuminated
May 15
Full
May 21
Last Quarter
May 28
New
Jun 5
First Quarter
Jun 13
Full

Hourly Weather History & Observations

Time (EDT) Temp. Heat Index Dew Point Humidity Pressure Visibility Wind Dir Wind Speed Gust Speed Precip Events Conditions
12:53 AM 75.9 °F - 69.1 °F 79% 30.02 in 10.0 mi SE 6.9 mph - N/A   Clear
1:53 AM 75.9 °F - 69.1 °F 79% 30.01 in 10.0 mi SE 9.2 mph - N/A   Clear
2:53 AM 75.0 °F - 70.0 °F 84% 29.98 in 10.0 mi SSE 9.2 mph - N/A   Clear
3:53 AM 75.0 °F - 70.0 °F 84% 29.97 in 10.0 mi SE 10.4 mph - N/A   Scattered Clouds
4:53 AM 75.0 °F - 70.0 °F 84% 29.96 in 10.0 mi SSE 9.2 mph - N/A   Clear
5:53 AM 73.9 °F - 70.0 °F 87% 29.97 in 10.0 mi SSE 6.9 mph - N/A   Clear
6:53 AM 73.9 °F - 70.0 °F 87% 29.97 in 10.0 mi SSE 6.9 mph - N/A   Mostly Cloudy
7:03 AM 73.9 °F - 71.1 °F 91% 29.98 in 10.0 mi SSE 5.8 mph - N/A   Mostly Cloudy
7:31 AM 75.0 °F - 71.1 °F 87% 29.98 in 10.0 mi SSE 8.1 mph - N/A   Partly Cloudy
7:45 AM 75.0 °F - 71.1 °F 87% 29.99 in 10.0 mi SSE 9.2 mph - N/A   Mostly Cloudy
7:53 AM 75.0 °F - 71.1 °F 87% 29.98 in 10.0 mi SSE 6.9 mph - N/A   Scattered Clouds
8:00 AM 75.0 °F - 71.1 °F 87% 29.98 in 10.0 mi SSE 8.1 mph - N/A   Scattered Clouds
8:45 AM 77.0 °F - 71.1 °F 82% 29.99 in 10.0 mi North - - N/A   Mostly Cloudy
8:53 AM 77.0 °F - 71.1 °F 82% 29.99 in 10.0 mi South 9.2 mph - N/A   Mostly Cloudy
9:53 AM 81.0 °F 85.2 °F 72.0 °F 74% 29.98 in 10.0 mi South 15.0 mph - N/A   Overcast
10:43 AM 82.9 °F 87.5 °F 71.1 °F 67% 29.98 in 10.0 mi South 13.8 mph - N/A   Scattered Clouds
10:53 AM 84.0 °F 89.6 °F 72.0 °F 67% 29.98 in 10.0 mi SSW 15.0 mph 20.7 mph N/A   Scattered Clouds
11:53 AM 87.1 °F 92.8 °F 71.1 °F 59% 29.96 in 10.0 mi South 15.0 mph - N/A   Mostly Cloudy
12:53 PM 89.1 °F 95.0 °F 71.1 °F 55% 29.94 in 10.0 mi SSW 8.1 mph 21.9 mph N/A   Scattered Clouds
1:53 PM 81.0 °F 85.8 °F 73.0 °F 77% 29.95 in 10.0 mi South 12.7 mph - 0.00 in   Mostly Cloudy
2:15 PM 75.9 °F - 71.1 °F 85% 29.95 in 2.5 mi South 12.7 mph - 0.05 in Rain Light Rain
3:08 PM 75.9 °F - 75.0 °F 97% 29.93 in 1.2 mi Calm Calm - 0.09 in Rain Light Rain
3:11 PM 77.0 °F - 75.0 °F 94% 29.93 in 2.5 mi Calm Calm - 0.09 in Rain Light Rain
3:18 PM 77.0 °F - 72.0 °F 84% 29.93 in 10.0 mi West 3.5 mph - 0.09 in   Mostly Cloudy
3:23 PM 77.0 °F - 72.0 °F 84% 29.93 in 1.8 mi West 5.8 mph - 0.14 in Rain Rain
3:26 PM 75.9 °F - 72.0 °F 87% 29.93 in 0.8 mi SSW 4.6 mph - 0.19 in Rain Heavy Rain
3:37 PM 77.0 °F - 73.0 °F 88% 29.92 in 1.8 mi SE 5.8 mph - 0.24 in Rain Light Rain
3:44 PM 78.1 °F - 75.0 °F 90% 29.91 in 10.0 mi SE 3.5 mph - 0.24 in   Mostly Cloudy
3:53 PM 79.0 °F - 73.9 °F 84% 29.91 in 10.0 mi Calm Calm - 0.24 in   Mostly Cloudy
4:53 PM 81.0 °F 85.8 °F 73.0 °F 77% 29.91 in 10.0 mi West 4.6 mph - N/A   Overcast
5:16 PM 80.1 °F 84.2 °F 73.0 °F 79% 29.92 in 10.0 mi SSW 3.5 mph - N/A   Overcast
5:40 PM 79.0 °F - 72.0 °F 79% 29.92 in 3.0 mi WSW 3.5 mph - 0.02 in Rain Light Rain
5:48 PM 78.8 °F - 71.6 °F 78% 29.92 in 9.0 mi NW 8.1 mph - 0.02 in Rain Light Rain
5:53 PM 78.1 °F - 72.0 °F 81% 29.92 in 10.0 mi NW 4.6 mph - 0.02 in Rain Light Rain
6:53 PM 78.1 °F - 73.0 °F 84% 29.92 in 10.0 mi SE 5.8 mph - 0.01 in   Overcast
7:53 PM 78.1 °F - 72.0 °F 81% 29.95 in 10.0 mi Calm Calm - N/A   Mostly Cloudy
8:00 PM 77.0 °F - 72.0 °F 84% 29.95 in 10.0 mi East 3.5 mph - N/A   Mostly Cloudy
8:22 PM 77.0 °F - 70.0 °F 79% 29.96 in 10.0 mi WNW 8.1 mph - N/A   Scattered Clouds
8:53 PM 75.9 °F - 69.1 °F 79% 29.97 in 10.0 mi WNW 11.5 mph - N/A   Partly Cloudy
9:53 PM 73.9 °F - 68.0 °F 82% 29.99 in 10.0 mi WNW 8.1 mph - N/A   Clear
10:53 PM 73.9 °F - 69.1 °F 85% 29.99 in 10.0 mi WNW 6.9 mph - N/A   Clear
11:53 PM 73.0 °F - 68.0 °F 84% 30.01 in 10.0 mi WNW 8.1 mph - N/A   Mostly Cloudy